"Sample Date","Sample Time","Sample Value","Units","Flow Rate","Sample Interval","Number Channels","Micron Size 0","Counts/Channel 0","Micron Size 1","Counts/Channel 1","Micron Size 2","Counts/Channel 2","Micron Size 3","Counts/Channel 3","Micron Size 4","Counts/Channel 4","Micron Size 5","Counts/Channel 5","Micron Size 6","Counts/Channel 6","Micron Size 7","Counts/Channel 7","Micron Size 8","Counts/Channel 8","Micron Size 9","Counts/Channel 9","Micron Size 10","Counts/Channel 10","Micron Size 11","Counts/Channel 11","Micron Size 12","Counts/Channel 12","Micron Size 13","Counts/Channel 13","Micron Size 14","Counts/Channel 14","Micron Size 15","Counts/Channel 15","Micron Size 16","Counts/Channel 16","Micron Size 17","Counts/Channel 17","Micron Size 18","Counts/Channel 18","Micron Size 19","Counts/Channel 19","Micron Size 20","Counts/Channel 20","Micron Size 21","Counts/Channel 21","Micron Size 22","Counts/Channel 22","Micron Size 23","Counts/Channel 23","Micron Size 24","Counts/Channel 24","Micron Size 25","Counts/Channel 25","Micron Size 26","Counts/Channel 26","Micron Size 27","Counts/Channel 27","Micron Size 28","Counts/Channel 28","Micron Size 29","Counts/Channel 29","Micron Size 30","Counts/Channel 30","Micron Size 31","Counts/Channel 31"
"04/01/08","16:00:00",11843.000,"cc",28297.393,6.00,6,0.100,10032.000,0.200,662.000,0.300,464.000,0.500,511.000,1.000,174.000,5.000,0
"04/01/08","16:00:06",12290.000,"cc",28340.590,6.00,6,0.100,10520.000,0.200,681.000,0.300,410.000,0.500,481.000,1.000,198.000,5.000,0
"04/01/08","16:00:12",12057.000,"cc",28298.856,6.00,6,0.100,10245.000,0.200,677.000,0.300,477.000,0.500,482.000,1.000,176.000,5.000,0
"04/01/08","16:00:18",12641.000,"cc",28295.738,6.00,6,0.100,10869.000,0.200,601.000,0.300,465.000,0.500,530.000,1.000,176.000,5.000,0
"04/01/08","16:00:24",12424.000,"cc",28326.766,6.00,6,0.100,10528.000,0.200,665.000,0.300,488.000,0.500,552.000,1.000,191.000,5.000,0
"04/01/08","16:00:30",12128.000,"cc",28358.961,6.00,6,0.100,10302.000,0.200,663.000,0.300,450.000,0.500,525.000,1.000,188.000,5.000,0
"04/01/08","16:00:36",12146.000,"cc",28312.127,6.00,6,0.100,10314.000,0.200,699.000,0.300,415.000,0.500,535.000,1.000,183.000,5.000,0
"04/01/08","16:00:42",12346.000,"cc",28339.600,6.00,6,0.100,10523.000,0.200,665.000,0.300,464.000,0.500,511.000,1.000,183.000,5.000,0
"04/01/08","16:00:48",12181.000,"cc",28333.945,6.00,6,0.100,10378.000,0.200,674.000,0.300,450.000,0.500,502.000,1.000,177.000,5.000,0
"04/01/08","16:00:54",12188.000,"cc",28280.369,6.00,6,0.100,10328.000,0.200,651.000,0.300,498.000,0.500,542.000,1.000,169.000,5.000,0
"04/01/08","16:01:00",12576.000,"cc",28280.967,6.00,6,0.100,10662.000,0.200,709.000,0.300,492.000,0.500,523.000,1.000,190.000,5.000,0
"04/01/08","16:01:06",12442.000,"cc",28337.295,6.00,6,0.100,10569.000,0.200,649.000,0.300,505.000,0.500,511.000,1.000,208.000,5.000,0
"04/01/08","16:01:12",12565.000,"cc",28366.424,6.00,6,0.100,10623.000,0.200,721.000,0.300,499.000,0.500,533.000,1.000,189.000,5.000,0
"04/01/08","16:01:18",12547.000,"cc",28390.775,6.00,6,0.100,10548.000,0.200,767.000,0.300,513.000,0.500,544.000,1.000,175.000,5.000,0
"04/01/08","16:01:24",12495.000,"cc",28225.777,6.00,6,0.100,10534.000,0.200,695.000,0.300,480.000,0.500,570.000,1.000,216.000,5.000,0
"04/01/08","16:01:30",12693.000,"cc",28286.865,6.00,6,0.100,10685.000,0.200,725.000,0.300,510.000,0.500,545.000,1.000,228.000,5.000,0
"04/01/08","16:01:36",12930.000,"cc",28359.916,6.00,6,0.100,10888.000,0.200,763.000,0.300,515.000,0.500,547.000,1.000,217.000,5.000,0
"04/01/08","16:01:42",12571.000,"cc",28287.916,6.00,6,0.100,10486.000,0.200,755.000,0.300,491.000,0.500,602.000,1.000,237.000,5.000,0
"04/01/08","16:01:48",12475.000,"cc",28283.510,6.00,6,0.100,10545.000,0.200,664.000,0.300,512.000,0.500,567.000,1.000,187.000,5.000,0
"04/01/08","16:01:54",12509.000,"cc",28337.832,6.00,6,0.100,10603.000,0.200,712.000,0.300,467.000,0.500,538.000,1.000,189.000,5.000,0
"04/01/08","16:02:00",12254.000,"cc",28322.350,6.00,6,0.100,10338.000,0.200,715.000,0.300,490.000,0.500,529.000,1.000,182.000,5.000,0
"04/01/08","16:02:06",12201.000,"cc",28260.406,6.00,6,0.100,10298.000,0.200,678.000,0.300,476.000,0.500,535.000,1.000,214.000,5.000,0
"04/01/08","16:02:12",11928.000,"cc",28310.410,6.00,6,0.100,10027.000,0.200,692.000,0.300,490.000,0.500,515.000,1.000,204.000,5.000,0
"04/01/08","16:02:18",12274.000,"cc",28329.801,6.00,6,0.100,10350.000,0.200,699.000,0.300,465.000,0.500,571.000,1.000,189.000,5.000,0
"04/01/08","16:02:24",12047.000,"cc",28403.617,6.00,6,0.100,10120.000,0.200,709.000,0.300,489.000,0.500,523.000,1.000,206.000,5.000,0
"04/01/08","16:02:30",11970.000,"cc",28336.963,6.00,6,0.100,10080.000,0.200,699.000,0.300,464.000,0.500,532.000,1.000,195.000,5.000,0
"04/01/08","16:02:36",12237.000,"cc",28277.807,6.00,6,0.100,10281.000,0.200,698.000,0.300,479.000,0.500,579.000,1.000,200.000,5.000,0
"04/01/08","16:02:42",11961.000,"cc",28287.441,6.00,6,0.100,10086.000,0.200,661.000,0.300,515.000,0.500,497.000,1.000,202.000,5.000,0
"04/01/08","16:02:48",12054.000,"cc",28328.438,6.00,6,0.100,10145.000,0.200,721.000,0.300,485.000,0.500,532.000,1.000,171.000,5.000,0
"04/01/08","16:02:54",12263.000,"cc",28284.402,6.00,6,0.100,10409.000,0.200,670.000,0.300,433.000,0.500,545.000,1.000,206.000,5.000,0
"04/01/08","16:03:00",12376.000,"cc",28361.815,6.00,6,0.100,10444.000,0.200,698.000,0.300,478.000,0.500,542.000,1.000,214.000,5.000,0
"04/01/08","16:03:06",12105.000,"cc",28323.570,6.00,6,0.100,10267.000,0.200,649.000,0.300,498.000,0.500,516.000,1.000,175.000,5.000,0
"04/01/08","16:03:12",12227.000,"cc",28279.459,6.00,6,0.100,10363.000,0.200,712.000,0.300,453.000,0.500,492.000,1.000,207.000,5.000,0
"04/01/08","16:03:18",12217.000,"cc",28295.184,6.00,6,0.100,10459.000,0.200,655.000,0.300,412.000,0.500,519.000,1.000,172.000,5.000,0
"04/01/08","16:03:24",12351.000,"cc",28304.725,6.00,6,0.100,10547.000,0.200,668.000,0.300,436.000,0.500,515.000,1.000,185.000,5.000,0
"04/01/08","16:03:30",12625.000,"cc",28306.795,6.00,6,0.100,10752.000,0.200,665.000,0.300,447.000,0.500,560.000,1.000,201.000,5.000,0
"04/01/08","16:03:36",12335.000,"cc",28342.965,6.00,6,0.100,10487.000,0.200,712.000,0.300,454.000,0.500,504.000,1.000,178.000,5.000,0
"04/01/08","16:03:42",12126.000,"cc",28318.555,6.00,6,0.100,10299.000,0.200,702.000,0.300,427.000,0.500,506.000,1.000,192.000,5.000,0
"04/01/08","16:03:48",12173.000,"cc",28293.129,6.00,6,0.100,10349.000,0.200,671.000,0.300,481.000,0.500,505.000,1.000,167.000,5.000,0
"04/01/08","16:03:54",11861.000,"cc",28348.473,6.00,6,0.100,10122.000,0.200,579.000,0.300,478.000,0.500,499.000,1.000,183.000,5.000,0
"04/01/08","16:04:00",12061.000,"cc",28383.988,6.00,6,0.100,10213.000,0.200,690.000,0.300,445.000,0.500,505.000,1.000,208.000,5.000,0
"04/01/08","16:04:06",11848.000,"cc",28356.881,6.00,6,0.100,10038.000,0.200,633.000,0.300,473.000,0.500,530.000,1.000,174.000,5.000,0
"04/01/08","16:04:12",11934.000,"cc",28281.080,6.00,6,0.100,10149.000,0.200,683.000,0.300,403.000,0.500,526.000,1.000,173.000,5.000,0
"04/01/08","16:04:18",12215.000,"cc",28280.887,6.00,6,0.100,10361.000,0.200,674.000,0.300,476.000,0.500,492.000,1.000,212.000,5.000,0
"04/01/08","16:04:24",11996.000,"cc",28301.709,6.00,6,0.100,10194.000,0.200,650.000,0.300,456.000,0.500,513.000,1.000,183.000,5.000,0
"04/01/08","16:04:30",11778.000,"cc",28328.041,6.00,6,0.100,9888.000,0.200,671.000,0.300,497.000,0.500,530.000,1.000,192.000,5.000,0
"04/01/08","16:04:36",11863.000,"cc",28267.955,6.00,6,0.100,10048.000,0.200,657.000,0.300,458.000,0.500,532.000,1.000,168.000,5.000,0
"04/01/08","16:04:42",11868.000,"cc",28364.705,6.00,6,0.100,10054.000,0.200,657.000,0.300,470.000,0.500,510.000,1.000,177.000,5.000,0
"04/01/08","16:04:48",11673.000,"cc",28290.561,6.00,6,0.100,9881.000,0.200,630.000,0.300,457.000,0.500,505.000,1.000,200.000,5.000,0
"04/01/08","16:04:54",11878.000,"cc",28311.109,6.00,6,0.100,10048.000,0.200,697.000,0.300,431.000,0.500,516.000,1.000,186.000,5.000,0
"04/01/08","16:05:00",11574.000,"cc",28380.840,6.00,6,0.100,9840.000,0.200,639.000,0.300,433.000,0.500,478.000,1.000,184.000,5.000,0
"04/01/08","16:05:06",11896.000,"cc",28310.727,6.00,6,0.100,10107.000,0.200,670.000,0.300,454.000,0.500,478.000,1.000,187.000,5.000,0
"04/01/08","16:05:12",11679.000,"cc",28278.170,6.00,6,0.100,9931.000,0.200,666.000,0.300,429.000,0.500,470.000,1.000,183.000,5.000,0
"04/01/08","16:05:18",11878.000,"cc",28289.869,6.00,6,0.100,10039.000,0.200,695.000,0.300,450.000,0.500,505.000,1.000,189.000,5.000,0
"04/01/08","16:05:24",11935.000,"cc",28321.943,6.00,6,0.100,10198.000,0.200,634.000,0.300,461.000,0.500,459.000,1.000,183.000,5.000,0
"04/01/08","16:05:30",12214.000,"cc",28346.254,6.00,6,0.100,10410.000,0.200,690.000,0.300,442.000,0.500,499.000,1.000,173.000,5.000,0
"04/01/08","16:05:36",12554.000,"cc",28296.742,6.00,6,0.100,10760.000,0.200,644.000,0.300,437.000,0.500,523.000,1.000,190.000,5.000,0
"04/01/08","16:05:42",12399.000,"cc",28383.582,6.00,6,0.100,10691.000,0.200,635.000,0.300,412.000,0.500,481.000,1.000,180.000,5.000,0
"04/01/08","16:05:48",12287.000,"cc",28343.252,6.00,6,0.100,10578.000,0.200,638.000,0.300,433.000,0.500,454.000,1.000,184.000,5.000,0
"04/01/08","16:05:54",12334.000,"cc",28302.777,6.00,6,0.100,10546.000,0.200,654.000,0.300,453.000,0.500,501.000,1.000,180.000,5.000,0
"04/01/08","16:06:00",12198.000,"cc",28301.211,6.00,6,0.100,10515.000,0.200,673.000,0.300,402.000,0.500,441.000,1.000,167.000,5.000,0
"04/01/08","16:06:06",12339.000,"cc",28285.357,6.00,6,0.100,10661.000,0.200,628.000,0.300,437.000,0.500,456.000,1.000,157.000,5.000,0
"04/01/08","16:06:12",11981.000,"cc",28335.709,6.00,6,0.100,10334.000,0.200,618.000,0.300,380.000,0.500,479.000,1.000,170.000,5.000,0
"04/01/08","16:06:18",12314.000,"cc",28348.514,6.00,6,0.100,10635.000,0.200,635.000,0.300,405.000,0.500,450.000,1.000,189.000,5.000,0
"04/01/08","16:06:24",12434.000,"cc",28288.432,6.00,6,0.100,10754.000,0.200,600.000,0.300,408.000,0.500,497.000,1.000,175.000,5.000,0
"04/01/08","16:06:30",12349.000,"cc",28310.311,6.00,6,0.100,10648.000,0.200,636.000,0.300,433.000,0.500,485.000,1.000,147.000,5.000,0
"04/01/08","16:06:36",12422.000,"cc",28257.762,6.00,6,0.100,10717.000,0.200,634.000,0.300,410.000,0.500,489.000,1.000,172.000,5.000,0
"04/01/08","16:06:42",12714.000,"cc",28315.809,6.00,6,0.100,10975.000,0.200,646.000,0.300,443.000,0.500,491.000,1.000,159.000,5.000,0
"04/01/08","16:06:48",12925.000,"cc",28372.672,6.00,6,0.100,11107.000,0.200,662.000,0.300,474.000,0.500,498.000,1.000,184.000,5.000,0
"04/01/08","16:06:54",12878.000,"cc",28301.117,6.00,6,0.100,11090.000,0.200,706.000,0.300,444.000,0.500,473.000,1.000,165.000,5.000,0
"04/01/08","16:07:00",12623.000,"cc",28323.324,6.00,6,0.100,10926.000,0.200,644.000,0.300,401.000,0.500,497.000,1.000,155.000,5.000,0
"04/01/08","16:07:06",12608.000,"cc",28336.471,6.00,6,0.100,10815.000,0.200,661.000,0.300,439.000,0.500,531.000,1.000,162.000,5.000,0
"04/01/08","16:07:12",12284.000,"cc",28309.412,6.00,6,0.100,10653.000,0.200,614.000,0.300,380.000,0.500,471.000,1.000,166.000,5.000,0
"04/01/08","16:07:18",12562.000,"cc",28286.609,6.00,6,0.100,10885.000,0.200,648.000,0.300,394.000,0.500,456.000,1.000,179.000,5.000,0
"04/01/08","16:07:24",12484.000,"cc",28333.623,6.00,6,0.100,10814.000,0.200,637.000,0.300,359.000,0.500,488.000,1.000,186.000,5.000,0
"04/01/08","16:07:30",12380.000,"cc",28297.869,6.00,6,0.100,10712.000,0.200,635.000,0.300,433.000,0.500,433.000,1.000,167.000,5.000,0
"04/01/08","16:07:36",12615.000,"cc",28276.645,6.00,6,0.100,10969.000,0.200,649.000,0.300,388.000,0.500,459.000,1.000,150.000,5.000,0
"04/01/08","16:07:42",12788.000,"cc",28325.877,6.00,6,0.100,11080.000,0.200,633.000,0.300,423.000,0.500,487.000,1.000,165.000,5.000,0
"04/01/08","16:07:48",12726.000,"cc",28368.955,6.00,6,0.100,10984.000,0.200,644.000,0.300,421.000,0.500,495.000,1.000,182.000,5.000,0
"04/01/08","16:07:54",12650.000,"cc",28269.527,6.00,6,0.100,10862.000,0.200,693.000,0.300,432.000,0.500,484.000,1.000,179.000,5.000,0
"04/01/08","16:08:00",12471.000,"cc",28343.600,6.00,6,0.100,10791.000,0.200,662.000,0.300,414.000,0.500,449.000,1.000,155.000,5.000,0
"04/01/08","16:08:06",12413.000,"cc",28277.787,6.00,6,0.100,10696.000,0.200,678.000,0.300,417.000,0.500,436.000,1.000,186.000,5.000,0
"04/01/08","16:08:12",12351.000,"cc",28364.459,6.00,6,0.100,10635.000,0.200,649.000,0.300,415.000,0.500,483.000,1.000,169.000,5.000,0
"04/01/08","16:08:18",12438.000,"cc",28297.182,6.00,6,0.100,10773.000,0.200,650.000,0.300,396.000,0.500,454.000,1.000,165.000,5.000,0
"04/01/08","16:08:24",12612.000,"cc",28363.981,6.00,6,0.100,11010.000,0.200,573.000,0.300,399.000,0.500,459.000,1.000,171.000,5.000,0
"04/01/08","16:08:30",12515.000,"cc",28322.504,6.00,6,0.100,10719.000,0.200,708.000,0.300,452.000,0.500,463.000,1.000,173.000,5.000,0
"04/01/08","16:08:36",12485.000,"cc",28352.586,6.00,6,0.100,10795.000,0.200,644.000,0.300,401.000,0.500,465.000,1.000,180.000,5.000,0
"04/01/08","16:08:42",12542.000,"cc",28328.764,6.00,6,0.100,10859.000,0.200,655.000,0.300,414.000,0.500,434.000,1.000,180.000,5.000,0
"04/01/08","16:08:48",12615.000,"cc",28294.219,6.00,6,0.100,10948.000,0.200,627.000,0.300,411.000,0.500,457.000,1.000,172.000,5.000,0
"04/01/08","16:08:54",12386.000,"cc",28316.023,6.00,6,0.100,10641.000,0.200,644.000,0.300,454.000,0.500,479.000,1.000,168.000,5.000,0
"04/01/08","16:09:00",12447.000,"cc",28314.434,6.00,6,0.100,10774.000,0.200,635.000,0.300,400.000,0.500,472.000,1.000,166.000,5.000,0
"04/01/08","16:09:06",12513.000,"cc",28366.053,6.00,6,0.100,10810.000,0.200,633.000,0.300,430.000,0.500,473.000,1.000,167.000,5.000,0
"04/01/08","16:09:12",12313.000,"cc",28300.496,6.00,6,0.100,10637.000,0.200,645.000,0.300,411.000,0.500,442.000,1.000,178.000,5.000,0
"04/01/08","16:09:18",12389.000,"cc",28262.645,6.00,6,0.100,10751.000,0.200,628.000,0.300,405.000,0.500,451.000,1.000,154.000,5.000,0
"04/01/08","16:09:24",12412.000,"cc",28307.846,6.00,6,0.100,10656.000,0.200,635.000,0.300,441.000,0.500,487.000,1.000,193.000,5.000,0
"04/01/08","16:09:30",12227.000,"cc",28295.850,6.00,6,0.100,10548.000,0.200,608.000,0.300,425.000,0.500,471.000,1.000,175.000,5.000,0
"04/01/08","16:09:36",12395.000,"cc",28350.795,6.00,6,0.100,10752.000,0.200,626.000,0.300,420.000,0.500,457.000,1.000,140.000,5.000,0
"04/01/08","16:09:42",12372.000,"cc",28279.949,6.00,6,0.100,10740.000,0.200,600.000,0.300,375.000,0.500,490.000,1.000,167.000,5.000,0
"04/01/08","16:09:48",12399.000,"cc",28345.279,6.00,6,0.100,10743.000,0.200,630.000,0.300,394.000,0.500,456.000,1.000,176.000,5.000,0
"04/01/08","16:09:54",11967.000,"cc",28308.486,6.00,6,0.100,10334.000,0.200,616.000,0.300,414.000,0.500,443.000,1.000,160.000,5.000,0
"04/01/08","16:10:00",12194.000,"cc",28329.809,6.00,6,0.100,10593.000,0.200,617.000,0.300,403.000,0.500,430.000,1.000,151.000,5.000,0
"04/01/08","16:10:06",12262.000,"cc",28309.578,6.00,6,0.100,10698.000,0.200,634.000,0.300,391.000,0.500,392.000,1.000,147.000,5.000,0
"04/01/08","16:10:12",12348.000,"cc",28334.951,6.00,6,0.100,10807.000,0.200,575.000,0.300,362.000,0.500,429.000,1.000,175.000,5.000,0
"04/01/08","16:10:18",12097.000,"cc",28278.934,6.00,6,0.100,10647.000,0.200,531.000,0.300,355.000,0.500,420.000,1.000,144.000,5.000,0
"04/01/08","16:10:24",12351.000,"cc",28340.414,6.00,6,0.100,10900.000,0.200,571.000,0.300,336.000,0.500,413.000,1.000,131.000,5.000,0
"04/01/08","16:10:30",12188.000,"cc",28309.131,6.00,6,0.100,10773.000,0.200,523.000,0.300,339.000,0.500,420.000,1.000,133.000,5.000,0
"04/01/08","16:10:36",12177.000,"cc",28342.723,6.00,6,0.100,10649.000,0.200,600.000,0.300,338.000,0.500,430.000,1.000,160.000,5.000,0
"04/01/08","16:10:42",12224.000,"cc",28324.734,6.00,6,0.100,10693.000,0.200,615.000,0.300,372.000,0.500,376.000,1.000,168.000,5.000,0
"04/01/08","16:10:48",12538.000,"cc",28228.467,6.00,6,0.100,11104.000,0.200,555.000,0.300,338.000,0.500,404.000,1.000,137.000,5.000,0
"04/01/08","16:10:54",12474.000,"cc",28306.715,6.00,6,0.100,11000.000,0.200,570.000,0.300,347.000,0.500,407.000,1.000,150.000,5.000,0
"04/01/08","16:11:00",12254.000,"cc",28334.908,6.00,6,0.100,10775.000,0.200,573.000,0.300,358.000,0.500,409.000,1.000,139.000,5.000,0
"04/01/08","16:11:06",12270.000,"cc",28372.201,6.00,6,0.100,10777.000,0.200,587.000,0.300,362.000,0.500,403.000,1.000,141.000,5.000,0
"04/01/08","16:11:12",12340.000,"cc",28341.943,6.00,6,0.100,10827.000,0.200,596.000,0.300,369.000,0.500,389.000,1.000,159.000,5.000,0
"04/01/08","16:11:18",12428.000,"cc",28293.227,6.00,6,0.100,10900.000,0.200,587.000,0.300,364.000,0.500,419.000,1.000,158.000,5.000,0
"04/01/08","16:11:24",12224.000,"cc",28318.309,6.00,6,0.100,10821.000,0.200,543.000,0.300,348.000,0.500,369.000,1.000,143.000,5.000,0
"04/01/08","16:11:30",12153.000,"cc",28285.777,6.00,6,0.100,10682.000,0.200,583.000,0.300,364.000,0.500,402.000,1.000,122.000,5.000,0
"04/01/08","16:11:36",12442.000,"cc",28340.742,6.00,6,0.100,11024.000,0.200,567.000,0.300,336.000,0.500,368.000,1.000,147.000,5.000,0
"04/01/08","16:11:42",12319.000,"cc",28287.381,6.00,6,0.100,10892.000,0.200,551.000,0.300,329.000,0.500,411.000,1.000,136.000,5.000,0
"04/01/08","16:11:48",12412.000,"cc",28327.022,6.00,6,0.100,10912.000,0.200,565.000,0.300,365.000,0.500,419.000,1.000,151.000,5.000,0
"04/01/08","16:11:54",12497.000,"cc",28332.164,6.00,6,0.100,11067.000,0.200,536.000,0.300,359.000,0.500,395.000,1.000,140.000,5.000,0
"04/01/08","16:12:00",12400.000,"cc",28301.072,6.00,6,0.100,10862.000,0.200,557.000,0.300,367.000,0.500,452.000,1.000,162.000,5.000,0
"04/01/08","16:12:06",12392.000,"cc",28308.533,6.00,6,0.100,10868.000,0.200,559.000,0.300,369.000,0.500,435.000,1.000,161.000,5.000,0
"04/01/08","16:12:12",12640.000,"cc",28312.662,6.00,6,0.100,11064.000,0.200,604.000,0.300,384.000,0.500,425.000,1.000,163.000,5.000,0
"04/01/08","16:12:18",12596.000,"cc",28300.621,6.00,6,0.100,11108.000,0.200,564.000,0.300,367.000,0.500,410.000,1.000,147.000,5.000,0
"04/01/08","16:12:24",12669.000,"cc",28304.029,6.00,6,0.100,11179.000,0.200,560.000,0.300,382.000,0.500,394.000,1.000,154.000,5.000,0
"04/01/08","16:12:30",12704.000,"cc",28324.637,6.00,6,0.100,11245.000,0.200,576.000,0.300,325.000,0.500,404.000,1.000,154.000,5.000,0
"04/01/08","16:12:36",12454.000,"cc",28310.531,6.00,6,0.100,10979.000,0.200,626.000,0.300,309.000,0.500,392.000,1.000,148.000,5.000,0
"04/01/08","16:12:42",12582.000,"cc",28316.412,6.00,6,0.100,11177.000,0.200,539.000,0.300,323.000,0.500,387.000,1.000,156.000,5.000,0
"04/01/08","16:12:48",12640.000,"cc",28306.029,6.00,6,0.100,11160.000,0.200,569.000,0.300,377.000,0.500,378.000,1.000,156.000,5.000,0
"04/01/08","16:12:54",12561.000,"cc",28316.133,6.00,6,0.100,11116.000,0.200,574.000,0.300,323.000,0.500,401.000,1.000,147.000,5.000,0
"04/01/08","16:13:00",12478.000,"cc",28290.215,6.00,6,0.100,10959.000,0.200,604.000,0.300,370.000,0.500,387.000,1.000,158.000,5.000,0
"04/01/08","16:13:06",12739.000,"cc",28329.775,6.00,6,0.100,11228.000,0.200,597.000,0.300,350.000,0.500,392.000,1.000,172.000,5.000,0
"04/01/08","16:13:12",12555.000,"cc",28271.850,6.00,6,0.100,11100.000,0.200,555.000,0.300,349.000,0.500,392.000,1.000,159.000,5.000,0
"04/01/08","16:13:18",12566.000,"cc",28359.262,6.00,6,0.100,11051.000,0.200,577.000,0.300,367.000,0.500,419.000,1.000,152.000,5.000,0
"04/01/08","16:13:24",12816.000,"cc",28302.846,6.00,6,0.100,11255.000,0.200,611.000,0.300,379.000,0.500,403.000,1.000,168.000,5.000,0
"04/01/08","16:13:30",12764.000,"cc",28331.957,6.00,6,0.100,11217.000,0.200,621.000,0.300,356.000,0.500,406.000,1.000,164.000,5.000,0
"04/01/08","16:13:36",12729.000,"cc",28309.531,6.00,6,0.100,11252.000,0.200,597.000,0.300,342.000,0.500,397.000,1.000,141.000,5.000,0
"04/01/08","16:13:42",12815.000,"cc",28349.127,6.00,6,0.100,11349.000,0.200,595.000,0.300,338.000,0.500,395.000,1.000,138.000,5.000,0
"04/01/08","16:13:48",13172.000,"cc",28364.691,6.00,6,0.100,11628.000,0.200,589.000,0.300,362.000,0.500,436.000,1.000,157.000,5.000,0
"04/01/08","16:13:54",13464.000,"cc",28357.793,6.00,6,0.100,11924.000,0.200,643.000,0.300,321.000,0.500,407.000,1.000,169.000,5.000,0
"04/01/08","16:14:00",13102.000,"cc",28328.799,6.00,6,0.100,11555.000,0.200,592.000,0.300,383.000,0.500,423.000,1.000,149.000,5.000,0
"04/01/08","16:14:06",13068.000,"cc",28311.229,6.00,6,0.100,11557.000,0.200,579.000,0.300,361.000,0.500,411.000,1.000,160.000,5.000,0
"04/01/08","16:14:12",13047.000,"cc",28345.039,6.00,6,0.100,11472.000,0.200,630.000,0.300,372.000,0.500,414.000,1.000,159.000,5.000,0
"04/01/08","16:14:18",13107.000,"cc",28297.445,6.00,6,0.100,11487.000,0.200,649.000,0.300,412.000,0.500,406.000,1.000,153.000,5.000,0
"04/01/08","16:14:24",13602.000,"cc",28281.611,6.00,6,0.100,12026.000,0.200,634.000,0.300,374.000,0.500,421.000,1.000,147.000,5.000,0
"04/01/08","16:14:30",13249.000,"cc",28264.635,6.00,6,0.100,11671.000,0.200,606.000,0.300,376.000,0.500,452.000,1.000,144.000,5.000,0
"04/01/08","16:14:36",13303.000,"cc",28327.145,6.00,6,0.100,11739.000,0.200,629.000,0.300,370.000,0.500,399.000,1.000,166.000,5.000,0
"04/01/08","16:14:42",13398.000,"cc",28310.365,6.00,6,0.100,11821.000,0.200,610.000,0.300,378.000,0.500,441.000,1.000,148.000,5.000,0
"04/01/08","16:14:48",13242.000,"cc",28335.322,6.00,6,0.100,11598.000,0.200,621.000,0.300,410.000,0.500,434.000,1.000,179.000,5.000,0
"04/01/08","16:14:54",13448.000,"cc",28320.848,6.00,6,0.100,11902.000,0.200,620.000,0.300,338.000,0.500,438.000,1.000,150.000,5.000,0
"04/01/08","16:15:00",13356.000,"cc",28310.152,6.00,6,0.100,11767.000,0.200,645.000,0.300,372.000,0.500,399.000,1.000,173.000,5.000,0
"04/01/08","16:15:06",13487.000,"cc",28240.658,6.00,6,0.100,11924.000,0.200,614.000,0.300,381.000,0.500,421.000,1.000,147.000,5.000,0
"04/01/08","16:15:12",13536.000,"cc",28331.100,6.00,6,0.100,11998.000,0.200,604.000,0.300,379.000,0.500,394.000,1.000,161.000,5.000,0
"04/01/08","16:15:18",13317.000,"cc",28392.188,6.00,6,0.100,11759.000,0.200,610.000,0.300,407.000,0.500,391.000,1.000,150.000,5.000,0
"04/01/08","16:15:24",13466.000,"cc",28335.436,6.00,6,0.100,11910.000,0.200,628.000,0.300,346.000,0.500,425.000,1.000,157.000,5.000,0
"04/01/08","16:15:30",13448.000,"cc",28309.315,6.00,6,0.100,11873.000,0.200,585.000,0.300,371.000,0.500,457.000,1.000,162.000,5.000,0
"04/01/08","16:15:36",13668.000,"cc",28283.170,6.00,6,0.100,12069.000,0.200,636.000,0.300,397.000,0.500,407.000,1.000,159.000,5.000,0
"04/01/08","16:15:42",13335.000,"cc",28290.395,6.00,6,0.100,11773.000,0.200,653.000,0.300,396.000,0.500,378.000,1.000,135.000,5.000,0
"04/01/08","16:15:48",13532.000,"cc",28303.873,6.00,6,0.100,11946.000,0.200,638.000,0.300,398.000,0.500,412.000,1.000,138.000,5.000,0
"04/01/08","16:15:54",13650.000,"cc",28325.496,6.00,6,0.100,12017.000,0.200,629.000,0.300,376.000,0.500,464.000,1.000,164.000,5.000,0
"04/01/08","16:16:00",13414.000,"cc",28367.691,6.00,6,0.100,11826.000,0.200,609.000,0.300,390.000,0.500,424.000,1.000,165.000,5.000,0
"04/01/08","16:16:06",13391.000,"cc",28342.162,6.00,6,0.100,11815.000,0.200,619.000,0.300,356.000,0.500,433.000,1.000,168.000,5.000,0
"04/01/08","16:16:12",13409.000,"cc",28301.324,6.00,6,0.100,11849.000,0.200,582.000,0.300,376.000,0.500,450.000,1.000,152.000,5.000,0
"04/01/08","16:16:18",13288.000,"cc",28301.420,6.00,6,0.100,11779.000,0.200,588.000,0.300,380.000,0.500,391.000,1.000,150.000,5.000,0
"04/01/08","16:16:24",13624.000,"cc",28307.438,6.00,6,0.100,12067.000,0.200,625.000,0.300,406.000,0.500,399.000,1.000,127.000,5.000,0
"04/01/08","16:16:30",13562.000,"cc",28298.193,6.00,6,0.100,12045.000,0.200,566.000,0.300,372.000,0.500,441.000,1.000,138.000,5.000,0
"04/01/08","16:16:36",13380.000,"cc",28297.315,6.00,6,0.100,11853.000,0.200,617.000,0.300,347.000,0.500,413.000,1.000,150.000,5.000,0
"04/01/08","16:16:42",13495.000,"cc",28329.305,6.00,6,0.100,11940.000,0.200,581.000,0.300,400.000,0.500,408.000,1.000,166.000,5.000,0